Regional Weather Roundup
Issued by NWS

Home | Current Version | Previous Version | Graphics & Text | Print | Product List | Glossary On
Versions: 1 2 3 4 5 6 7 8 9 10 11 12 13 14 15 16 17 18 19 20 21 22 23 24 25 26 27 28 29 30 31 32 33 34 35 36 37 38 39 40 41 42 43 44 45 46 47 48 49 50
918
ASUS43 KDMX 052108
RWRIA

WEATHER ROUNDUP FOR IOWA
NATIONAL WEATHER SERVICE DES MOINES IA
400 PM CDT THU MAY 05 2016

NOTE: "FAIR" INDICATES FEW OR NO CLOUDS BELOW 12,000 FEET WITH NO
SIGNIFICANT WEATHER AND/OR OBSTRUCTIONS TO VISIBILITY.

* - THESE STATIONS ARE NOT NWS STATIONS...THUS NOT UNDER NWS
QUALITY CONTROL.  THEY ALSO DO NOT REPORT WEATHER SUCH
AS PRECIPITATION OR FOG.

IAZ001>003-012>014-020>022-031>034-043>046-052200-
   NORTHWEST IOWA

CITY           SKY/WX    TMP DP  RH WIND       PRES   REMARKS
CARROLL *      SUNNY     73  34  23 VRB8G15   30.02F
CHEROKEE *     SUNNY     75  41  29 W7        30.02F
DENISON *      SUNNY     73  36  25 CALM      30.01F
LE MARS *      SUNNY     77  41  27 SW6       30.01F
ORANGE CITY *  SUNNY     75  39  27 S7        30.01F
SHELDON *      SUNNY     77  37  24 S6G13     29.99F
SIOUX CITY     SUNNY     77  47  34 SE12      30.00F
SPENCER        SUNNY     76  36  23 SW9       30.01F
STORM LAKE *   SUNNY     75  34  22 W10       30.03F
$$

IAZ055>058-069>071-079>083-090>094-052200-
   SOUTHWEST IOWA

CITY           SKY/WX    TMP DP  RH WIND       PRES   REMARKS
ATLANTIC *     SUNNY     72  34  25 CALM      30.04F
AUDUBON *        N/A     73  28  19 CALM      30.05F
CLARINDA *       N/A     72  36  26 MISG      30.06F
COUNCIL BLFS * SUNNY     73  37  27 CALM      30.04F
CRESTON *      SUNNY     70  34  26 CALM      30.06F
HARLAN  *      SUNNY     75  36  23 CALM      30.07F
LAMONI         SUNNY     69  35  28 VRB3      30.05F
RED OAK *      SUNNY     73  37  27 CALM      30.05F
SHENANDOAH *   SUNNY     73  37  27 VRB5      30.05F
$$

IAZ047>049-059>061-072>074-084-052200-
   CENTRAL IOWA

CITY           SKY/WX    TMP DP  RH WIND       PRES   REMARKS
AMES           SUNNY     72  33  24 W5        30.03F
ANKENY *       SUNNY     70  32  24 VRB7      30.04F
BOONE *        SUNNY     70  36  28 NW6G12    30.02F
CHARITON *     SUNNY     68  32  26 NW6       30.05F
DES MOINES     MOSUNNY   72  30  21 VRB5      30.04F
GRINNELL*      SUNNY     68  28  22 NW10      30.05F
KNOXVILLE *    SUNNY     66  30  26 VRB5      30.04F
MARSHALLTOWN   SUNNY     69  34  27 NW6       30.02F
NEWTON *       SUNNY     68  30  24 N6        30.04F
PELLA *        SUNNY     68  32  26 W9        30.06
PERRY *          N/A     72  30  21 CALM      30.03F
$$

IAZ004>006-015-016-023>025-035-036-052200-
   NORTH CENTRAL IOWA

CITY           SKY/WX    TMP DP  RH WIND       PRES   REMARKS
ALGONA *       SUNNY     73  36  25 S9G16     30.01F
CLARION *      SUNNY     73  32  21 SW7G14    30.01F
ESTHERVILLE    SUNNY     74  38  27 SW10      30.00F
FORT DODGE *   SUNNY     73  39  29 SW6       30.03F
MASON CITY     SUNNY     70  38  31 SW8       30.02F
FOREST CITY *  MOSUNNY   72  34  25 SW6       30.00F
WEBSTER CITY * SUNNY     73  34  23 W10       30.00F
IOWA FALLS *     N/A     72  34  25 SW6       30.03F
$$

IAZ007>011-017>019-026>030-037>042-050>054-066-052200-
   NORTHEAST IOWA

CITY           SKY/WX    TMP DP  RH WIND       PRES   REMARKS
CEDAR RAPIDS   SUNNY     68  38  33 VRB5      30.02F
CHARLES CITY * SUNNY     70  30  23 VRB6G12   30.02F
CLINTON *      SUNNY     64  38  38 CALM      30.02F
DECORAH *      SUNNY     66  32  28 SW7G14    30.00F
DUBUQUE        SUNNY     64  38  38 N6        30.02F
MONTICELLO *   SUNNY     66  30  26 VRB6G12   30.01F
OELWEIN *      SUNNY     66  32  28 W13       30.02F
WATERLOO       SUNNY     68  29  23 CALM      30.02F
$$

IAZ064-065-067-068-078-052200-
   EAST CENTRAL IOWA

CITY           SKY/WX    TMP DP  RH WIND       PRES   REMARKS
DAVENPORT      SUNNY     66  34  30 NW7       30.02F
IOWA CITY      SUNNY     67  36  31 N9        30.04F
MT. PLEASANT * SUNNY     70  39  32 NW8       30.03F
MUSCATINE *    SUNNY     68  39  34 N9        30.03F
QUAD CITIES    SUNNY     68  35  29 VRB5      30.00F
$$

IAZ062-063-075>077-085>089-095>099-052200-
   SOUTHEAST IOWA

CITY           SKY/WX    TMP DP  RH WIND       PRES   REMARKS
BURLINGTON     SUNNY     67  42  40 N12       30.02F
FAIRFIELD *    SUNNY     66  32  28 N7        30.03F
FORT MADISON * SUNNY     66  37  34 NE3       30.04F
KEOKUK *       SUNNY     66  37  34 VRB7      30.03F
OSKALOOSA *      N/A     68  27  21 N6        30.04F
OTTUMWA        SUNNY     68  35  29 N9        30.04F
WASHINGTON *   SUNNY     68  36  30 N12       30.04F
$$

ABBREVIATIONS USED IN REMARKS
   TC - TEMPERATURES IN CELSIUS
  WCI - WIND CHILL INDEX
   HX - HEAT INDEX
  VSB - VISIBILITY
$$





USA.gov is the U.S. government's official web portal to all federal, state and local government web resources and services.